Location: Gourdan-Polignan
(43.0709°N, 0.5748°E)
Time: 20:48:36
(UTC+00:00)

USA 186 - Pass Details

Date: 15 May 2026
Orbit: 338 x 359 km, 97.0° (Epoch: 19 May)

Event Time Altitude Azimuth Distance (km) Brightness Sun altitude
Exits shadow 21:12:57 35° 226° (SW) 565 2.3 -17.7°
Maximum altitude 21:13:32 41° 261° (W) 504 2.3 -17.8°
Drops below altitude 10° 21:16:10 10° 334° (NNW) 1,291 5.4 -18.1°
Sets 21:18:09 0° 342° (NNW) 2,137 6.6 -18.3°
